Tracking 29892 objects as of 21-Nov-2024
HD Live streaming from Space Station
objects crossing your sky now

NOAA 16 DEB

Track NOAA 16 DEB now!
10-day predictions


NORAD ID: 41403
Int'l Code: 2000-055KG
Perigee: 755.3 km
Apogee: 784.6 km
Inclination: 98.9 °
Period: 100.1 minutes
Semi major axis: 7140 km
RCS: Unknown
Launch date: September 21, 2000
Source: United States (US)
Launch site: AIR FORCE WESTERN TEST RANGE (AFWTR)

Note: This is SATELLITE DEBRIS
Your satellite tracking list
Your tracking list is empty




NASA's NSSDC Master Catalog

Two Line Element Set (TLE):
1 41403U 00055KG  24325.31131912  .00013538  00000-0  44095-2 0  9993
2 41403  98.9015  98.7929 0020541  45.7675 314.5194 14.38694762456053
Source of the keplerian elements: AFSPC